Weather History for KIML - February, 2013

Change the Weather History Date:

Wednesday, February 20, 2013

  Actual Average Record
Temperature  
Mean Temperature 18 °F 33 °F  
Max Temperature 22 °F 46 °F 72 °F (1972)
Min Temperature 14 °F 20 °F -12 °F (1918)
Degree Days  
Heating Degree Days 47 32  
Month to date heating degree days 612 688  
Cooling Degree Days 0 0  
Month to date cooling degree days 0 0  
Year to date cooling degree days 0 0  
Moisture  
Dew Point 14 °F    
Average Humidity 71    
Maximum Humidity 92    
Minimum Humidity 49    
Precipitation  
Precipitation 0.10 in 0.02 in 0.30 in (1994)
Sea Level Pressure  
Sea Level Pressure 29.93 in    
Wind  
Wind Speed 17 mph (ESE)    
Max Wind Speed 24 mph    
Max Gust Speed 31 mph    
Visibility 4 miles    
Events Fog , Snow    
T = Trace of Precipitation, MM = Missing Value Source: NWS Daily Summary

Daily Weather History Graph

Daily Weather History Graph

Search for Another Location

Airport or City:

Trip Planner

Search our weather history database for the weather conditions in past years. The results will help you decide how hot, cold, wet, or windy it might be!

Date:

Astronomy

Feb. 20, 2013 Rise Set
Actual Time 6:32 AM MST 5:27 PM MST
Civil Twilight 6:05 AM MST 5:55 PM MST
Nautical Twilight 5:33 AM MST 6:27 PM MST
Astronomical Twilight 5:01 AM MST 6:59 PM MST
Moon 12:50 PM MST (2/20) 2:55 AM MST (2/20)
Length of Visible Light 11h 50m
Length of Day
10h 55m
Waxing Gibbous, 76% of the Moon is Illuminated
Feb 20
Waxing Gibbous
Feb 25
Full
Mar 4
Last Quarter
Mar 11
New
Mar 19
First Quarter

Hourly Weather History & Observations

Time (MST) Temp. Windchill Dew Point Humidity Pressure Visibility Wind Dir Wind Speed Gust Speed Precip Events Conditions
12:53 AM 19.0 °F 3.6 °F 3.9 °F 52% 30.10 in 10.0 mi SE 18.4 mph - N/A   Clear
1:53 AM 18.0 °F 1.7 °F 3.0 °F 52% 30.09 in 10.0 mi SE 19.6 mph 26.5 mph N/A   Clear
2:53 AM 17.1 °F 0.6 °F 3.0 °F 54% 30.07 in 10.0 mi SE 19.6 mph 26.5 mph N/A   Clear
3:53 AM 16.0 °F 0.6 °F 1.9 °F 54% 30.06 in 10.0 mi SE 16.1 mph 24.2 mph N/A   Clear
4:53 AM 15.1 °F -2.0 °F 1.9 °F 56% 30.06 in 10.0 mi SE 19.6 mph 25.3 mph N/A   Partly Cloudy
5:27 AM 14.0 °F -2.0 °F 1.4 °F 57% 29.96 in 10.0 mi ESE 16.1 mph - N/A   Mostly Cloudy
5:53 AM 15.8 °F -0.2 °F 3.2 °F 58% 29.96 in 10.0 mi SE 17.3 mph 25.3 mph N/A   Overcast
6:53 AM 16.0 °F 0.1 °F 3.0 °F 57% 30.07 in 10.0 mi SE 17.3 mph 24.2 mph N/A   Overcast
7:53 AM 17.1 °F 0.6 °F 5.0 °F 59% 30.08 in 10.0 mi SE 19.6 mph 26.5 mph N/A   Overcast
8:53 AM 18.0 °F 2.2 °F 6.1 °F 60% 30.09 in 10.0 mi SE 18.4 mph 23.0 mph N/A   Overcast
9:51 AM 17.6 °F 1.7 °F 10.4 °F 73% 29.96 in 6.0 mi SE 18.4 mph 24.2 mph N/A   Haze
9:53 AM 17.1 °F 0.1 °F 10.9 °F 77% 30.09 in 6.0 mi SE 20.7 mph 25.3 mph N/A   Haze
10:53 AM 18.0 °F 2.6 °F 14.0 °F 84% 30.07 in 10.0 mi SE 17.3 mph 23.0 mph N/A   Overcast
11:35 AM 19.4 °F 4.1 °F 14.0 °F 80% 29.94 in 7.0 mi ESE 18.4 mph - N/A   Overcast
11:48 AM 19.4 °F 5.5 °F 14.0 °F 80% 29.93 in 8.0 mi SE 15.0 mph - N/A   Overcast
11:53 AM 19.4 °F 5.5 °F 15.8 °F 86% 29.93 in 7.0 mi SE 15.0 mph 21.9 mph N/A   Overcast
12:22 PM 19.4 °F 4.5 °F 15.8 °F 86% 29.91 in 6.0 mi ESE 17.3 mph - N/A   Haze
12:39 PM 19.4 °F 5.0 °F 15.8 °F 86% 29.90 in 2.0 mi SE 16.1 mph - 0.00 in Snow Light Snow
12:46 PM 21.2 °F 7.8 °F 15.8 °F 80% 29.90 in 1.2 mi ESE 15.0 mph - 0.00 in Snow Light Snow
12:53 PM 21.0 °F 6.6 °F 17.1 °F 85% 30.01 in 1.2 mi SE 17.3 mph - 0.00 in Snow Light Snow
1:04 PM 21.2 °F 6.8 °F 17.6 °F 86% 29.88 in 2.0 mi SE 17.3 mph - 0.00 in Snow Light Snow
1:11 PM 21.2 °F 7.3 °F 17.6 °F 86% 29.88 in 1.5 mi ESE 16.1 mph 23.0 mph 0.00 in Snow Light Snow
1:53 PM 21.9 °F 7.3 °F 18.0 °F 85% 29.98 in 1.8 mi ESE 18.4 mph 24.2 mph 0.00 in Snow Light Snow
2:01 PM 21.2 °F 6.0 °F 17.6 °F 86% 29.86 in 2.5 mi ESE 19.6 mph - 0.00 in Snow Light Snow
2:36 PM 21.2 °F 7.8 °F 17.6 °F 86% 29.86 in 5.0 mi ESE 15.0 mph - 0.00 in   Overcast
2:42 PM 21.2 °F 7.8 °F 17.6 °F 86% 29.85 in 1.8 mi ESE 15.0 mph - 0.00 in Snow Light Snow
2:53 PM 21.9 °F 8.7 °F 19.0 °F 89% 29.98 in 0.8 mi ESE 15.0 mph - 0.00 in Snow Light Snow
3:13 PM 21.2 °F 5.2 °F 17.6 °F 86% 29.85 in 1.5 mi SE 21.9 mph 26.5 mph 0.00 in Snow Light Snow
3:20 PM 21.2 °F 5.6 °F 17.6 °F 86% 29.85 in 3.0 mi SE 20.7 mph 26.5 mph 0.00 in Snow Light Snow
3:34 PM 21.2 °F 5.2 °F 17.6 °F 86% 29.85 in 4.0 mi SE 21.9 mph 26.5 mph 0.00 in Snow Light Snow
3:46 PM 21.2 °F 6.8 °F 17.6 °F 86% 29.85 in 1.8 mi SE 17.3 mph - 0.00 in Snow Light Snow
3:53 PM 21.0 °F 7.6 °F 17.1 °F 85% 29.98 in 1.2 mi ESE 15.0 mph - 0.00 in Snow Light Snow
4:03 PM 19.4 °F 4.1 °F 17.6 °F 93% 29.85 in 0.8 mi ESE 18.4 mph - 0.01 in Snow Light Snow
4:14 PM 19.4 °F 5.5 °F 17.6 °F 93% 29.85 in 0.5 mi ESE 15.0 mph - 0.01 in Fog , Snow Snow
4:32 PM 19.4 °F 6.6 °F 15.8 °F 86% 29.85 in 1.0 mi ESE 12.7 mph - 0.03 in Snow Light Snow
4:45 PM 19.4 °F 6.0 °F 15.8 °F 86% 29.85 in 2.5 mi ESE 13.8 mph - 0.03 in Snow Light Snow
4:53 PM 19.9 °F 7.3 °F 16.0 °F 85% 29.99 in 2.0 mi East 12.7 mph - 0.04 in Snow Light Snow
5:00 PM 19.4 °F 6.0 °F 15.8 °F 86% 29.85 in 1.5 mi ESE 13.8 mph - N/A Snow Light Snow
5:35 PM 19.4 °F 4.5 °F 15.8 °F 86% 29.85 in 3.0 mi ESE 17.3 mph 24.2 mph 0.01 in Snow Light Snow
5:50 PM 19.4 °F 4.5 °F 15.8 °F 86% 29.85 in 7.0 mi ESE 17.3 mph 25.3 mph 0.01 in Snow Light Snow
5:51 PM 19.0 °F 4.0 °F 16.0 °F 88% 29.99 in 8.0 mi ESE 17.3 mph 25.3 mph 0.01 in Snow Light Snow
6:39 PM 19.4 °F 5.5 °F 15.8 °F 86% 29.87 in 2.5 mi ESE 15.0 mph - 0.00 in Snow Light Snow
6:53 PM 19.0 °F 5.6 °F 15.1 °F 85% 30.00 in 1.5 mi ESE 13.8 mph - 0.00 in Snow Light Snow
7:01 PM 19.4 °F 5.0 °F 15.8 °F 86% 29.87 in 1.2 mi ESE 16.1 mph - 0.00 in Snow Light Snow
7:17 PM 17.6 °F 3.7 °F 15.8 °F 93% 29.87 in 1.0 mi ESE 13.8 mph - N/A Snow Light Snow
7:27 PM 17.6 °F 3.2 °F 15.8 °F 93% 29.87 in 1.2 mi ESE 15.0 mph - 0.01 in Snow Light Snow
7:53 PM 18.0 °F 2.6 °F 15.1 °F 88% 30.00 in 1.5 mi ESE 17.3 mph - 0.01 in Snow Light Snow
8:09 PM 17.6 °F 4.3 °F 15.8 °F 93% 29.87 in 1.5 mi ESE 12.7 mph - N/A Snow Light Snow
8:16 PM 19.4 °F 6.6 °F 15.8 °F 86% 29.87 in 2.0 mi East 12.7 mph - N/A Snow Light Snow
8:44 PM 19.4 °F 5.5 °F 15.8 °F 86% 29.87 in 3.0 mi ESE 15.0 mph - 0.00 in Snow Light Snow
8:49 PM 19.4 °F 6.0 °F 15.8 °F 86% 29.87 in 1.8 mi East 13.8 mph - 0.00 in Snow Light Snow
8:53 PM 19.0 °F 4.5 °F 15.1 °F 85% 30.00 in 1.2 mi ESE 16.1 mph - 0.00 in Snow Light Snow
9:11 PM 19.4 °F 6.6 °F 15.8 °F 86% 29.87 in 2.5 mi East 12.7 mph - 0.00 in Snow Light Snow
9:37 PM 17.6 °F 4.3 °F 15.8 °F 93% 29.87 in 2.5 mi East 12.7 mph - 0.01 in Snow Light Snow
9:53 PM 18.0 °F 4.8 °F 15.1 °F 88% 30.00 in 1.0 mi East 12.7 mph - 0.01 in Snow Light Snow
10:03 PM 17.6 °F 3.2 °F 15.8 °F 93% 29.86 in 3.0 mi ESE 15.0 mph - 0.00 in Snow Light Snow
10:10 PM 17.6 °F 3.2 °F 15.8 °F 93% 29.86 in 3.0 mi ESE 15.0 mph - 0.00 in Snow Light Snow
10:18 PM 17.6 °F 3.2 °F 15.8 °F 93% 29.86 in 2.5 mi ESE 15.0 mph 24.2 mph 0.00 in Snow Light Snow
10:25 PM 17.6 °F 2.2 °F 15.8 °F 93% 29.86 in 2.0 mi ESE 17.3 mph - 0.00 in Snow Light Snow
10:33 PM 17.6 °F 2.2 °F 15.8 °F 93% 29.86 in 1.2 mi ESE 17.3 mph - 0.00 in Snow Light Snow
10:49 PM 17.6 °F 3.7 °F 15.8 °F 93% 29.86 in 0.8 mi ESE 13.8 mph - 0.01 in Snow Light Snow
10:53 PM 18.0 °F 4.8 °F 15.1 °F 88% 29.99 in 0.5 mi East 12.7 mph - 0.01 in Fog , Snow Snow
11:05 PM 17.6 °F 2.7 °F 15.8 °F 93% 29.85 in 1.8 mi East 16.1 mph - 0.01 in Snow Light Snow
11:09 PM 17.6 °F 2.7 °F 15.8 °F 93% 29.84 in 3.0 mi East 16.1 mph - 0.01 in Snow Light Snow
11:16 PM 17.6 °F 3.2 °F 15.8 °F 93% 29.85 in 1.8 mi ESE 15.0 mph - 0.01 in Snow Light Snow
11:50 PM 17.6 °F 3.2 °F 15.8 °F 93% 29.85 in 1.2 mi ESE 15.0 mph - 0.02 in Snow Light Snow
11:53 PM 18.0 °F 3.1 °F 15.1 °F 88% 29.98 in 1.0 mi ESE 16.1 mph - 0.02 in Snow Light Snow